Location: Bjelajci
(45.0103°N, 16.1758°E)
Time: 08:45:10
(UTC+00:00)

MOZ.5/SAFIR/RUBIN 5/SL-8 - Pass Details

Date: 14 July 2020
Orbit: 678 x 705 km, 98.1° (Epoch: 07 August)

Event Time Altitude Azimuth Distance (km) Brightness Sun altitude
Exits shadow 00:25:51 44° 172° (S) 969 4.1 -20.6°
Maximum altitude 00:27:22 85° 256° (WSW) 713 3.7 -20.5°
Drops below altitude 10° 00:32:11 10° 346° (NNW) 2,185 7.1 -20.2°
Sets 00:34:27 0° 347° (NNW) 3,109 8.0 -20.0°
